When you browse on this site, cookies collect data to enhance your experience and personalize the content and advertising you see.
Visit our Privacy Policy to learn more. By continuing to use the site, you agree to this use of cookies and data.

Hourly Weather Sillian

Today, 5 July, Sunday

Time Temperature Precipitation Wind Pressure Humidity
00:00 +10°C° 0 mm 1 mps 630 mmHg 92%
01:00 +9°C° 0 mm 1 mps 630 mmHg 92%
02:00 +9°C° 0 mm 1 mps 630 mmHg 91%
03:00 +9°C° 0 mm 1 mps 630 mmHg 90%
04:00 +7°C° 0 mm 2 mps 630 mmHg 89%
05:00 +10°C° 0 mm 1 mps 631 mmHg 80%
06:00 +12°C° 0 mm 1 mps 631 mmHg 71%
07:00 +15°C° 0 mm 1 mps 632 mmHg 62%
08:00 +18°C° 0 mm 1 mps 633 mmHg 53%
09:00 +21°C° 0 mm 1 mps 634 mmHg 44%
10:00 +23°C° 0 mm 1 mps 635 mmHg 34%
11:00 +24°C° 0 mm 1 mps 635 mmHg 34%
12:00 +25°C° 0 mm 1 mps 635 mmHg 34%
13:00 +25°C° 0 mm 1 mps 635 mmHg 33%
14:00 +25°C° 0 mm 1 mps 634 mmHg 37%
15:00 +24°C° 0 mm 2 mps 634 mmHg 40%
16:00 +24°C° 0 mm 2 mps 633 mmHg 44%
17:00 +23°C° 0 mm 2 mps 633 mmHg 55%
18:00 +21°C° 0 mm 1 mps 632 mmHg 67%
19:00 +19°C° 0 mm 1 mps 631 mmHg 79%
20:00 +18°C° 0 mm 1 mps 631 mmHg 84%
21:00 +15°C° 0 mm 1 mps 631 mmHg 89%
22:00 +13°C° 0 mm 1 mps 630 mmHg 94%
23:00 +13°C° 0 mm 1 mps 630 mmHg 95%

Tomorrow, 6 July, Monday

Time Temperature Precipitation Wind Pressure Humidity
00:00 +13°C° 0 mm 1 mps 630 mmHg 95%
01:00 +12°C° 0 mm 1 mps 629 mmHg 95%
02:00 +12°C° 0 mm 1 mps 629 mmHg 95%
03:00 +12°C° 0 mm 1 mps 629 mmHg 94%
04:00 +12°C° 0 mm 1 mps 629 mmHg 94%
05:00 +14°C° 0 mm 1 mps 629 mmHg 89%
06:00 +14°C° 0 mm 0 mps 630 mmHg 85%
07:00 +16°C° 0 mm 0 mps 630 mmHg 80%
08:00 +17°C° 0.1 mm 0 mps 630 mmHg 74%
09:00 +21°C° 0.1 mm 1 mps 631 mmHg 67%
10:00 +22°C° 0.1 mm 1 mps 631 mmHg 60%
11:00 +22°C° 0.3 mm 1 mps 630 mmHg 63%
12:00 +21°C° 0.3 mm 1 mps 630 mmHg 66%
13:00 +21°C° 0.3 mm 1 mps 630 mmHg 69%
14:00 +21°C° 0.6 mm 1 mps 629 mmHg 70%
15:00 +21°C° 0.6 mm 1 mps 629 mmHg 71%
16:00 +20°C° 0.6 mm 1 mps 629 mmHg 72%
17:00 +18°C° 1.5 mm 2 mps 628 mmHg 80%
18:00 +16°C° 1.5 mm 2 mps 628 mmHg 87%
19:00 +14°C° 1.5 mm 2 mps 627 mmHg 95%
20:00 +12°C° 4.7 mm 3 mps 627 mmHg 95%
21:00 +10°C° 4.7 mm 3 mps 627 mmHg 96%
22:00 +7°C° 4.7 mm 4 mps 627 mmHg 96%
23:00 +6°C° 2.9 mm 4 mps 627 mmHg 96%

Day after tomorrow, 7 July, Tuesday

Time Temperature Precipitation Wind Pressure Humidity
00:00 +5°C° 2.9 mm 3 mps 627 mmHg 96%
01:00 +5°C° 2.9 mm 3 mps 627 mmHg 96%
02:00 +4°C° 0 mm 3 mps 627 mmHg 96%
03:00 +3°C° 0 mm 3 mps 627 mmHg 95%
04:00 +3°C° 0 mm 3 mps 627 mmHg 94%
05:00 +3°C° 0 mm 3 mps 628 mmHg 90%
06:00 +4°C° 0 mm 3 mps 628 mmHg 86%
07:00 +5°C° 0 mm 3 mps 629 mmHg 81%
08:00 +9°C° 0 mm 3 mps 630 mmHg 69%
09:00 +12°C° 0 mm 2 mps 630 mmHg 56%
10:00 +14°C° 0 mm 2 mps 631 mmHg 43%
11:00 +16°C° 0 mm 2 mps 631 mmHg 39%
12:00 +18°C° 0 mm 2 mps 632 mmHg 35%
13:00 +19°C° 0 mm 2 mps 632 mmHg 31%
14:00 +19°C° 0 mm 2 mps 632 mmHg 33%
15:00 +19°C° 0 mm 2 mps 632 mmHg 35%
16:00 +18°C° 0 mm 2 mps 632 mmHg 37%
17:00 +17°C° 0 mm 2 mps 631 mmHg 48%
18:00 +15°C° 0 mm 2 mps 631 mmHg 59%
19:00 +14°C° 0 mm 1 mps 630 mmHg 70%
20:00 +12°C° 0 mm 1 mps 630 mmHg 77%
21:00 +9°C° 0 mm 1 mps 630 mmHg 84%
22:00 +6°C° 0 mm 0 mps 629 mmHg 91%
23:00 +6°C° 0 mm 0 mps 629 mmHg 91%

8 July, Wednesday

Time Temperature Precipitation Wind Pressure Humidity
00:00 +6°C° 0 mm 0 mps 629 mmHg 90%
01:00 +6°C° 0 mm 0 mps 629 mmHg 90%
02:00 +6°C° 0 mm 0 mps 629 mmHg 89%
03:00 +6°C° 0 mm 1 mps 629 mmHg 89%
04:00 +6°C° 0 mm 1 mps 628 mmHg 89%
05:00 +8°C° 0 mm 1 mps 629 mmHg 81%
06:00 +11°C° 0 mm 1 mps 630 mmHg 74%
07:00 +12°C° 0 mm 0 mps 631 mmHg 66%
08:00 +14°C° 0 mm 0 mps 632 mmHg 56%
09:00 +17°C° 0 mm 0 mps 633 mmHg 47%
10:00 +19°C° 0 mm 0 mps 634 mmHg 38%
11:00 +22°C° 0 mm 1 mps 634 mmHg 37%
12:00 +23°C° 0 mm 1 mps 634 mmHg 36%
13:00 +24°C° 0 mm 1 mps 634 mmHg 35%
14:00 +23°C° 0 mm 2 mps 633 mmHg 39%
15:00 +23°C° 0 mm 2 mps 633 mmHg 42%
16:00 +23°C° 0 mm 2 mps 633 mmHg 45%
17:00 +20°C° 0.1 mm 2 mps 632 mmHg 57%
18:00 +19°C° 0.1 mm 1 mps 632 mmHg 69%
19:00 +16°C° 0.1 mm 1 mps 631 mmHg 81%
20:00 +15°C° 0 mm 1 mps 631 mmHg 85%
21:00 +13°C° 0 mm 1 mps 631 mmHg 90%
22:00 +11°C° 0 mm 1 mps 631 mmHg 94%
23:00 +10°C° 0 mm 0 mps 630 mmHg 94%

9 July, Thursday

Time Temperature Precipitation Wind Pressure Humidity
00:00 +9°C° 0 mm 0 mps 630 mmHg 94%
01:00 +9°C° 0 mm 0 mps 630 mmHg 94%
02:00 +9°C° 0 mm 0 mps 630 mmHg 94%
03:00 +9°C° 0 mm 0 mps 630 mmHg 94%
04:00 +9°C° 0 mm 0 mps 630 mmHg 94%
05:00 +10°C° 0 mm 0 mps 631 mmHg 90%
06:00 +12°C° 0 mm 0 mps 631 mmHg 86%
07:00 +14°C° 0 mm 0 mps 632 mmHg 82%
08:00 +18°C° 0 mm 1 mps 633 mmHg 72%
09:00 +20°C° 0 mm 1 mps 633 mmHg 62%
10:00 +22°C° 0 mm 1 mps 634 mmHg 52%
11:00 +21°C° 0.1 mm 2 mps 634 mmHg 51%
12:00 +23°C° 0.1 mm 2 mps 634 mmHg 49%
13:00 +23°C° 0.1 mm 2 mps 633 mmHg 48%
14:00 +23°C° 0.2 mm 2 mps 633 mmHg 49%
15:00 +21°C° 0.2 mm 2 mps 633 mmHg 51%
16:00 +21°C° 0.2 mm 2 mps 633 mmHg 53%
17:00 +20°C° 0.2 mm 2 mps 632 mmHg 60%
18:00 +19°C° 0.2 mm 1 mps 632 mmHg 68%
19:00 +18°C° 0.2 mm 1 mps 631 mmHg 76%
20:00 +15°C° 0 mm 1 mps 631 mmHg 81%
21:00 +13°C° 0 mm 1 mps 630 mmHg 85%
22:00 +10°C° 0 mm 0 mps 630 mmHg 90%
23:00 +10°C° 0.1 mm 0 mps 629 mmHg 89%

10 July, Friday

Time Temperature Precipitation Wind Pressure Humidity
00:00 +10°C° 0.1 mm 0 mps 629 mmHg 89%
01:00 +9°C° 0.1 mm 0 mps 629 mmHg 88%
02:00 +10°C° 0 mm 1 mps 629 mmHg 87%
03:00 +10°C° 0 mm 1 mps 628 mmHg 85%
04:00 +10°C° 0 mm 1 mps 628 mmHg 84%
05:00 +11°C° 0 mm 0 mps 629 mmHg 78%
06:00 +13°C° 0 mm 0 mps 630 mmHg 72%
07:00 +15°C° 0 mm 0 mps 630 mmHg 66%
08:00 +17°C° 0.2 mm 0 mps 631 mmHg 58%
09:00 +21°C° 0.2 mm 1 mps 631 mmHg 50%
10:00 +22°C° 0.2 mm 1 mps 632 mmHg 42%
11:00 +23°C° 0.2 mm 2 mps 632 mmHg 39%
12:00 +24°C° 0.2 mm 2 mps 632 mmHg 36%
13:00 +24°C° 0.2 mm 2 mps 632 mmHg 33%
14:00 +24°C° 0.1 mm 2 mps 632 mmHg 36%
15:00 +24°C° 0.1 mm 2 mps 631 mmHg 39%
16:00 +23°C° 0.1 mm 2 mps 631 mmHg 42%
17:00 +20°C° 0.2 mm 2 mps 631 mmHg 54%
18:00 +20°C° 0.2 mm 1 mps 630 mmHg 65%
19:00 +18°C° 0.2 mm 1 mps 630 mmHg 77%
20:00 +16°C° 0.3 mm 1 mps 629 mmHg 80%
21:00 +15°C° 0.3 mm 1 mps 629 mmHg 84%
22:00 +13°C° 0.3 mm 1 mps 629 mmHg 88%
23:00 +13°C° 0.3 mm 1 mps 629 mmHg 88%
Show more